| time (UTC) | temp F | wind direction | speed knots | gust knots | rain 1hr in | rain 24hr in | rain mn in | humidity % | barometer mb |
| 20260503072521 | 45 | 331 | 0.9 | 2.6 | 0.00 | 0.16 | 0.12 | 98 | 1014.8 |
| 20260503071529 | 45 | 345 | 0.9 | 1.7 | 0.00 | 0.16 | 0.12 | 98 | 1014.7 |
| 20260503070517 | 45 | 353 | 0.9 | 1.7 | 0.00 | 0.16 | 0.12 | 98 | 1014.7 |
| 20260503054527 | 45 | 350 | 0.9 | 2.6 | 0.01 | 0.16 | 0.12 | 98 | 1014.5 |
| 20260503053535 | 45 | 347 | 0.9 | 1.7 | 0.01 | 0.16 | 0.12 | 98 | 1014.6 |
| 20260503052524 | 45 | 339 | 0.0 | 1.7 | 0.01 | 0.16 | 0.12 | 98 | 1014.4 |
| 20260503051552 | 45 | 329 | 0.9 | 1.7 | 0.00 | 0.15 | 0.11 | 98 | 1014.4 |
| 20260503050520 | 45 | 317 | 0.9 | 3.5 | 0.01 | 0.15 | 0.11 | 98 | 1014.5 |
| 20260503045528 | 46 | 345 | 0.9 | 3.5 | 0.01 | 0.15 | 0.11 | 98 | 1014.5 |
| 20260503044516 | 46 | 37 | 0.9 | 3.5 | 0.03 | 0.15 | 0.11 | 98 | 1014.4 |
| 20260503043525 | 46 | 338 | 0.9 | 2.6 | 0.04 | 0.15 | 0.11 | 98 | 1014.4 |
| 20260503042533 | 46 | 341 | 0.9 | 1.7 | 0.05 | 0.15 | 0.11 | 98 | 1014.4 |
| 20260503041520 | 46 | 354 | 0.9 | 1.7 | 0.06 | 0.15 | 0.11 | 98 | 1014.3 |
| 20260503040609 | 46 | 360 | 0.9 | 1.7 | 0.06 | 0.14 | 0.10 | 98 | 1014.4 |
| 20260503035517 | 46 | 29 | 0.9 | 3.5 | 0.08 | 0.14 | 0.10 | 98 | 1014.5 |
| 20260503034525 | 46 | 341 | 0.9 | 2.6 | 0.06 | 0.12 | 0.08 | 98 | 1014.4 |
| 20260503033533 | 46 | 3 | 0.9 | 2.6 | 0.06 | 0.11 | 0.07 | 97 | 1014.4 |
| 20260503032521 | 46 | 7 | 0.9 | 5.2 | 0.05 | 0.10 | 0.06 | 97 | 1014.4 |
| 20260503031550 | 47 | 350 | 1.7 | 3.5 | 0.04 | 0.09 | 0.05 | 97 | 1014.4 |
| 20260503030519 | 47 | 332 | 1.7 | 3.5 | 0.03 | 0.08 | 0.04 | 97 | 1014.2 |
| 20260503025528 | 47 | 16 | 0.9 | 2.6 | 0.01 | 0.06 | 0.02 | 97 | 1014.3 |
| 20260503024555 | 47 | 357 | 1.7 | 6.1 | 0.02 | 0.06 | 0.02 | 97 | 1014.2 |
| 20260503023524 | 47 | 341 | 0.9 | 3.5 | 0.01 | 0.05 | 0.01 | 97 | 1014.2 |
| 20260503022532 | 47 | 334 | 1.7 | 3.5 | 0.01 | 0.05 | 0.01 | 97 | 1014.3 |
| 20260503021521 | 47 | 340 | 0.9 | 1.7 | 0.01 | 0.05 | 0.01 | 97 | 1014.4 |
| 20260503020529 | 47 | 336 | 1.7 | 3.5 | 0.01 | 0.05 | 0.01 | 96 | 1014.3 |
| 20260503015517 | 47 | 340 | 1.7 | 2.6 | 0.01 | 0.05 | 0.01 | 96 | 1014.4 |
| 20260503014526 | 47 | 356 | 1.7 | 2.6 | 0.00 | 0.04 | 0.00 | 96 | 1014.4 |
| 20260503013535 | 47 | 352 | 0.9 | 2.6 | 0.00 | 0.04 | 0.00 | 96 | 1014.4 |
| 20260503012543 | 47 | 354 | 1.7 | 3.5 | 0.00 | 0.04 | 0.00 | 96 | 1014.4 |
| 20260503011532 | 47 | 6 | 1.7 | 2.6 | 0.00 | 0.04 | 0.00 | 95 | 1014.5 |
| 20260503010519 | 47 | 342 | 1.7 | 3.5 | 0.00 | 0.04 | 0.00 | 95 | 1014.6 |
| 20260503005528 | 47 | 347 | 1.7 | 5.2 | 0.00 | 0.04 | 0.00 | 95 | 1014.5 |
| 20260503004556 | 47 | 10 | 1.7 | 3.5 | 0.00 | 0.04 | 0.00 | 95 | 1014.6 |
| 20260503003526 | 47 | 299 | 1.7 | 6.1 | 0.00 | 0.04 | 0.00 | 95 | 1014.6 |
| 20260503002535 | 47 | 340 | 1.7 | 3.5 | 0.00 | 0.04 | 0.00 | 95 | 1014.7 |
| 20260503001523 | 48 | 1 | 0.9 | 3.5 | 0.00 | 0.04 | 0.00 | 95 | 1014.7 |
| 20260503000532 | 48 | 2 | 2.6 | 6.1 | 0.00 | 0.04 | 0.00 | 95 | 1014.7 |
| 20260502235520 | 48 | 354 | 1.7 | 6.1 | 0.00 | 0.04 | 0.00 | 95 | 1014.9 |
| 20260502234528 | 48 | 4 | 0.9 | 3.5 | 0.00 | 0.04 | 0.00 | 95 | 1014.9 |
| 20260502233516 | 48 | 337 | 1.7 | 3.5 | 0.00 | 0.04 | 0.00 | 95 | 1014.9 |
| 20260502232625 | 48 | 5 | 0.9 | 2.6 | 0.00 | 0.04 | 0.00 | 95 | 1014.9 |
| 20260502231534 | 48 | 331 | 1.7 | 2.6 | 0.00 | 0.04 | 0.00 | 95 | 1014.9 |
| 20260502230522 | 48 | 345 | 0.9 | 3.5 | 0.00 | 0.04 | 0.00 | 96 | 1014.9 |
| 20260502225550 | 48 | 3 | 1.7 | 2.6 | 0.00 | 0.04 | 0.04 | 96 | 1014.9 |
| 20260502224519 | 48 | 20 | 1.7 | 6.1 | 0.00 | 0.04 | 0.04 | 96 | 1014.8 |
| 20260502223528 | 48 | 355 | 1.7 | 3.5 | 0.00 | 0.04 | 0.04 | 96 | 1014.8 |
| 20260502222516 | 48 | 358 | 1.7 | 3.5 | 0.00 | 0.04 | 0.04 | 96 | 1014.8 |
| 20260502221524 | 48 | 324 | 1.7 | 3.5 | 0.00 | 0.04 | 0.04 | 96 | 1014.8 |
| 20260502220533 | 48 | 358 | 1.7 | 6.1 | 0.00 | 0.04 | 0.04 | 96 | 1014.8 |
| 20260502215521 | 48 | 358 | 1.7 | 5.2 | 0.00 | 0.04 | 0.04 | 96 | 1014.9 |
| 20260502214530 | 48 | 349 | 0.9 | 2.6 | 0.00 | 0.04 | 0.04 | 96 | 1014.9 |
| 20260502213559 | 48 | 4 | 1.7 | 3.5 | 0.00 | 0.04 | 0.04 | 96 | 1014.9 |
| 20260502212528 | 49 | 348 | 0.0 | 1.7 | 0.00 | 0.04 | 0.04 | 96 | 1015.0 |
| 20260502211517 | 49 | 357 | 0.9 | 3.5 | 0.00 | 0.04 | 0.04 | 96 | 1015.0 |
| 20260502210546 | 48 | 346 | 0.9 | 3.5 | 0.00 | 0.04 | 0.04 | 96 | 1014.9 |
| 20260502205554 | 48 | 21 | 0.9 | 5.2 | 0.00 | 0.04 | 0.04 | 96 | 1014.9 |
| 20260502204523 | 48 | 353 | 0.9 | 2.6 | 0.00 | 0.04 | 0.04 | 96 | 1014.9 |
| 20260502203531 | 48 | 6 | 0.9 | 2.6 | 0.00 | 0.04 | 0.04 | 96 | 1015.1 |
| 20260502202520 | 48 | 344 | 0.9 | 2.6 | 0.00 | 0.04 | 0.04 | 96 | 1014.9 |
| 20260502201529 | 48 | 351 | 0.9 | 2.6 | 0.00 | 0.04 | 0.04 | 96 | 1014.9 |
| 20260502200518 | 49 | 343 | 0.9 | 2.6 | 0.00 | 0.04 | 0.04 | 96 | 1014.8 |
| 20260502195527 | 49 | 52 | 1.7 | 6.1 | 0.00 | 0.04 | 0.04 | 96 | 1014.6 |
| 20260502194515 | 49 | 348 | 1.7 | 3.5 | 0.00 | 0.04 | 0.04 | 96 | 1014.6 |
| 20260502193545 | 49 | 16 | 1.7 | 6.1 | 0.00 | 0.04 | 0.04 | 96 | 1014.4 |
| 20260502192533 | 49 | 273 | 1.7 | 2.6 | 0.00 | 0.04 | 0.04 | 95 | 1014.4 |
| 20260502191521 | 49 | 348 | 0.9 | 1.7 | 0.00 | 0.04 | 0.04 | 95 | 1014.2 |
| 20260502190530 | 49 | 316 | 0.9 | 3.5 | 0.01 | 0.04 | 0.04 | 95 | 1014.1 |
| 20260502185519 | 50 | 47 | 1.7 | 6.1 | 0.01 | 0.04 | 0.04 | 94 | 1014.3 |
| 20260502184548 | 50 | 17 | 0.9 | 1.7 | 0.02 | 0.04 | 0.04 | 94 | 1014.4 |
| 20260502183517 | 50 | 55 | 0.9 | 3.5 | 0.02 | 0.04 | 0.04 | 93 | 1014.3 |
| 20260502182525 | 50 | 343 | 0.9 | 2.6 | 0.03 | 0.04 | 0.04 | 93 | 1014.2 |
| 20260502181534 | 50 | 346 | 0.9 | 1.7 | 0.03 | 0.04 | 0.04 | 93 | 1014.0 |
| 20260502180521 | 51 | 351 | 0.9 | 2.6 | 0.02 | 0.03 | 0.03 | 93 | 1014.1 |
| 20260502163539 | 58 | 3 | 1.7 | 3.5 | 0.00 | 0.06 | 0.01 | 80 | 1013.1 |
| 20260502162529 | 59 | 344 | 0.0 | 1.7 | 0.00 | 0.06 | 0.01 | 73 | 1013.1 |
| 20260502161517 | 59 | 354 | 0.9 | 2.6 | 0.00 | 0.06 | 0.01 | 72 | 1013.0 |
| 20260502160526 | 60 | 19 | 0.9 | 3.5 | 0.00 | 0.06 | 0.01 | 72 | 1012.9 |
| 20260502151532 | 62 | 10 | 0.9 | 2.6 | 0.00 | 0.06 | 0.01 | 70 | 1012.9 |
| 20260502150520 | 60 | 7 | 0.9 | 1.7 | 0.00 | 0.06 | 0.01 | 70 | 1013.0 |
| 20260502130526 | 66 | 290 | 0.9 | 2.6 | 0.01 | 0.07 | 0.01 | 66 | 1013.1 |
| 20260502123534 | 64 | 332 | 0.0 | 0.9 | 0.01 | 0.07 | 0.01 | 74 | 1013.1 |
| 20260502122522 | 61 | 1 | 0.9 | 1.7 | 0.01 | 0.07 | 0.01 | 79 | 1013.2 |
| 20260502121531 | 61 | 357 | 0.0 | 1.7 | 0.01 | 0.07 | 0.01 | 77 | 1013.4 |
| 20260502120519 | 61 | 353 | 0.0 | 0.9 | 0.00 | 0.06 | 0.00 | 76 | 1013.3 |
| 20260502115528 | 62 | 4 | 0.9 | 2.6 | 0.00 | 0.06 | 0.00 | 74 | 1013.4 |
| 20260502114518 | 66 | 345 | 0.9 | 1.7 | 0.00 | 0.06 | 0.00 | 68 | 1013.3 |
| 20260502113527 | 69 | 305 | 0.9 | 2.6 | 0.00 | 0.06 | 0.00 | 64 | 1013.3 |
| 20260502112516 | 67 | 328 | 0.9 | 1.7 | 0.00 | 0.06 | 0.00 | 67 | 1013.3 |
| 20260502111525 | 66 | 3 | 0.9 | 3.5 | 0.00 | 0.06 | 0.00 | 70 | 1013.5 |
| 20260502110535 | 65 | 319 | 0.9 | 2.6 | 0.00 | 0.06 | 0.00 | 71 | 1013.5 |
| 20260502105524 | 63 | 21 | 0.9 | 2.6 | 0.00 | 0.06 | 0.00 | 74 | 1013.6 |
| 20260502104532 | 64 | 315 | 0.9 | 3.5 | 0.00 | 0.06 | 0.00 | 74 | 1013.8 |
| 20260502103521 | 62 | 316 | 0.9 | 2.6 | 0.00 | 0.06 | 0.00 | 76 | 1013.8 |
| 20260502102530 | 62 | 331 | 0.9 | 2.6 | 0.00 | 0.06 | 0.00 | 76 | 1013.9 |
| 20260502101519 | 62 | 360 | 0.9 | 2.6 | 0.00 | 0.06 | 0.00 | 77 | 1013.8 |
| 20260502100528 | 62 | 350 | 0.9 | 1.7 | 0.00 | 0.06 | 0.00 | 77 | 1013.8 |
| 20260502091531 | 60 | 327 | 0.9 | 3.5 | 0.00 | 0.06 | 0.00 | 79 | 1013.8 |
| 20260502090519 | 60 | 30 | 0.9 | 1.7 | 0.00 | 0.06 | 0.00 | 80 | 1013.6 |